Regional Weather Roundup
Issued by NWS

Home | Current Version | Previous Version | Graphics & Text | Print | Product List | Glossary On
Versions: 1 2 3 4 5 6 7 8 9 10 11 12 13 14 15 16 17 18 19 20 21 22 23 24 25 26 27 28 29 30 31 32 33 34 35 36 37 38 39 40 41 42 43 44 45 46 47 48 49 50
438
ASUS43 KMKX 222011
RWRWI

WISCONSIN REGIONAL WEATHER ROUNDUP
NATIONAL WEATHER SERVICE MILWAUKEE/SULLIVAN WI
200 PM CST WED NOV 22 2017

NOTE: "FAIR" INDICATES FEW OR NO CLOUDS BELOW 12,000 FEET WITH NO
SIGNIFICANT WEATHER AND/OR OBSTRUCTIONS TO VISIBILITY.

WIZ001-002-006>008-014>016-023>028-222100-
NORTHWEST WISCONSIN

CITY           SKY/WX    TMP DP  RH WIND       PRES   REMARKS
SUPERIOR ARPT  CLOUDY    25  12  58 SW9       30.14F WCI  15
ASHLAND        CLOUDY    25  11  55 SW13      30.15F WCI  14
HAYWARD        CLOUDY    23  12  62 S9        30.14F WCI  13
SIREN          CLOUDY    24  14  65 SW7       30.16S WCI  16
CUMBERLAND     CLOUDY    23  12  63 SW9       30.16S WCI  13
RICE LAKE      CLOUDY    24  13  63 S9        30.18F WCI  14
CHETEK         CLOUDY    23  12  62 S8        30.18F WCI  14
LADYSMITH      CLOUDY    24  13  62 S7        30.17F WCI  16
EAU CLAIRE     CLOUDY    25  11  55 S9        30.18F WCI  15
MENOMONIE      CLOUDY    26  13  58 S7        30.20F WCI  18
NEW RICHMOND   LGT SNOW  24  14  67 SW9       30.17F WCI  14
OSCEOLA        LGT SNOW  23  18  82 S7        30.20F WCI  14
$$

WIZ003>005-009-010-017-018-222100-
NORTH CENTRAL WISCONSIN

CITY           SKY/WX    TMP DP  RH WIND       PRES   REMARKS
MANITOWISH WTR CLOUDY    24  11  58 SW9       30.11F WCI  14
ARBOR VITAE    CLOUDY    26  14  59 SW8       30.11F WCI  18
WOODRUFF       CLOUDY    26  14  59 SW8       30.11F WCI  18
RHINELANDER    CLOUDY    25  12  58 SW10      30.12F WCI  15
EAGLE RIVER    CLOUDY    24  10  57 SW6       30.11F WCI  16
LAND O LAKES   CLOUDY    24  12  59 S8        30.12F WCI  15
PHILLIPS       CLOUDY    22  11  62 S9        30.13F WCI  12
TOMAHAWK       CLOUDY    25  11  56 S5        30.14F WCI  19
MEDFORD        MOSUNNY   23  13  64 S7        30.14F WCI  15
MERRILL        MOSUNNY   26  11  55 SW8       30.17F WCI  17
$$

WIZ029-030-035-036-043>047-222100-
CENTRAL WISCONSIN

CITY           SKY/WX    TMP DP  RH WIND       PRES   REMARKS
WAUSAU         MOSUNNY   26  12  55 SW10      30.16F WCI  16
MOSINEE        CLOUDY    27  12  54 SW8       30.18F WCI  18
MARSHFIELD     CLOUDY    25  11  55 SW7       30.16F WCI  17
STEVENS POINT  CLOUDY    25  10  54 SW6       30.19F WCI  18
WAUPACA        MOSUNNY   31  13  45 S7        30.22F WCI  25
WAUTOMA        MOSUNNY   29  14  53 SW7       30.22F WCI  22
WISC RAPIDS    CLOUDY    27  13  55 SW8       30.21F WCI  19
CAMP DOUGLAS   CLOUDY    28  12  50 SW6       30.20F WCI  22
$$

WIZ011>013-019>022-031-037>040-048>050-222100-
NORTHEAST WISCONSIN

CITY           SKY/WX    TMP DP  RH WIND       PRES   REMARKS
ANTIGO         CLOUDY    25  12  58 SW9       30.15F WCI  16
SHAWANO        CLOUDY    31  13  48 W8        30.20F WCI  23
OCONTO         CLOUDY    29  13  50 SW6       30.21F WCI  23
STURGEON BAY   CLOUDY    27  15  61 W10G16    30.22F WCI  17
GREEN BAY      SUNNY     30  16  56 SW9       30.22F WCI  22
MANITOWOC      SUNNY     30  16  56 W8        30.24F WCI  22
APPLETON       PTSUNNY   28  10  47 SW10      30.20F WCI  19
CLINTONVILLE   PTSUNNY   28  10  47 SW7       30.21F WCI  21
OSHKOSH        MOSUNNY   29  15  56 SW7       30.22F WCI  22
$$

WIZ032>034-041-042-053>061-222100-
SOUTHWEST WISCONSIN

CITY           SKY/WX    TMP DP  RH WIND       PRES   REMARKS
LA CROSSE      MOSUNNY   30  13  49 S9        30.23F WCI  22
SPARTA         CLOUDY    29  14  54 S7        30.23F WCI  22
VIROQUA        MOSUNNY   28  17  65 SW10      30.20F WCI  18
BOSCOBEL       MOSUNNY   33  14  45 SW8       30.25F WCI  26
PRAIRIE DU CHI CLOUDY    32  12  44 S6        30.24F WCI  26
PLATTEVILLE    CLOUDY    31  17  54 SW9       30.25F WCI  23
$$

WIZ056-057-062-063-064-067-068-222100-
SOUTH CENTRAL WISCONSIN

CITY           SKY/WX    TMP DP  RH WIND       PRES   REMARKS
REEDSBURG      MOSUNNY   29  14  52 SW7       30.22F WCI  22
BARABOO/DELLS  MOSUNNY   28  13  52 SW9       30.22F WCI  20
LONE ROCK      MOSUNNY   31  15  52 W9        30.24F WCI  23
MINERAL POINT  PTSUNNY   32  18  55 SW7       30.23F WCI  26
MADISON        PTSUNNY   30  14  51 VRB3      30.23F
MIDDLETON      MOSUNNY   32  15  48 SW10G16   30.24F WCI  24
WATERTOWN      SUNNY     31  16  52 SW8       30.25F WCI  24
MONROE         SUNNY     32  14  47 SW9       30.24F WCI  24
JANESVILLE     SUNNY     34  16  47 SW8       30.27S WCI  27
$$

WIZ051-052-058>065-066-070>072-222100-
SOUTHEAST WISCONSIN

CITY           SKY/WX    TMP DP  RH WIND       PRES   REMARKS
MILWAUKEE      PTSUNNY   34  15  46 SW12      30.26F WCI  25
WAUKESHA       SUNNY     30  12  47 W8        30.27S WCI  23
MILWAUKEE/TIMM SUNNY     32  10  40 W8        30.27F WCI  25
RACINE         SUNNY     33  15  47 W9        30.27F WCI  25
BURLINGTON     SUNNY     35  20  55 SW9       30.26S WCI  27
KENOSHA        SUNNY     33  15  47 W9        30.26F WCI  25
FOND DU LAC    CLOUDY    30  14  51 SW9       30.23F WCI  22
SHEBOYGAN      SUNNY     31  15  52 W7        30.24F WCI  24
WEST BEND      SUNNY     32  14  47 W7        30.25S WCI  26
JUNEAU         SUNNY     29  14  54 SW8       30.24F WCI  21
$$

LSZ147-162-222100-
LAKE SUPERIOR

STATION/POSITION TIME  TEMP    WIND        PRES    WAVE
                       AIR SEA DIR/SP/G            HT/PER
                 (UTC) (F)     (DEG/KT/KT) (MB)    (FT/S)
DEVILS ISLAND    2000   24     230/ 12/ 18 1021.4F
SAXON HARBOR     1940   26     220/  7/ 12 1020.3F
$$

LMZ867-665-643>646-222100-
LAKE MICHIGAN

STATION/POSITION TIME  TEMP    WIND        PRES    WAVE
                       AIR SEA DIR/SP/G            HT/PER
                 (UTC) (F)     (DEG/KT/KT) (MB)    (FT/S)
N MID LAKE BUOY  1950   31 47  220/  8/ 12 1024.2F   1/ 3
NORTHPORT PIER   1940   29     250/  3/ 10 1022.7F
KEWAUNEE LAKESHO 1948   30     230/  4/  7 1023.0F
SHEBOYGAN LAKESH 2000   31     220/  9/ 11 1025.0F
PORT WASHINGTON  1930   33     260/  5/ 10 1025.7S
MILWAUKEE LAKESH 1930   32     240/  7/  8   N/A
S MID LAKE BUOY  1850   31 47  280/  8/ 12 1026.9F   2/ 6
KENOSHA   LAKESH 2000   33     220/  3/ 10 1024.7
$$

TC  - TEMPERATURE IN CELSIUS
VSB - VISIBILITY IN STATUTE MILES
WCI - WIND CHILL INDEX
HX  - HEAT INDEX





USA.gov is the U.S. government's official web portal to all federal, state and local government web resources and services.